Weather History for KXSA - November, 2011

Change the Weather History Date:

Friday, November 4, 2011

  Actual Average (KRIC) Record (KRIC)
Temperature  
Mean Temperature 50 °F 54 °F  
Max Temperature 57 °F 66 °F 84 °F (1974)
Min Temperature 42 °F 43 °F 26 °F (1963)
Degree Days  
Heating Degree Days 16 11  
Month to date heating degree days 43  
Since 1 July heating degree days 276  
Cooling Degree Days 0 0  
Month to date cooling degree days 0  
Year to date cooling degree days 1543  
Moisture  
Dew Point 47 °F    
Average Humidity 91    
Maximum Humidity 100    
Minimum Humidity 62    
Precipitation  
Precipitation 0.00 in 0.11 in 2.14 in (1929)
Month to date precipitation 0.44  
Year to date precipitation 37.54  
Snow  
Snow 0.00 in 0.00 in 0.00 in (2002)
Month to date snowfall 0.0  
Since 1 July snowfall 0.0  
Snow Depth -    
Sea Level Pressure  
Sea Level Pressure 29.92 in    
Wind  
Wind Speed 4 mph (North)    
Max Wind Speed 20 mph    
Max Gust Speed 26 mph    
Visibility 9 miles    
Events Rain    
T = Trace of Precipitation, MM = Missing Value Source: NWS Daily Summary

Daily Weather History Graph

Daily Weather History Graph

Search for Another Location

Airport or City:

Trip Planner

Search our weather history database for the weather conditions in past years. The results will help you decide how hot, cold, wet, or windy it might be!

Date:

Astronomy

Nov. 04, 2011 Rise Set
Actual Time 7:35 AM EDT 6:05 PM EDT
Civil Twilight 7:08 AM EDT 6:33 PM EDT
Nautical Twilight 6:37 AM EDT 7:04 PM EDT
Astronomical Twilight 6:06 AM EDT 7:35 PM EDT
Moon 2:51 PM EDT (11/4) 1:51 AM EDT (11/4)
Length of Visible Light 11h 24m
Length of Day
10h 29m
Waxing Gibbous, 69% of the Moon is Illuminated
Nov 4
Waxing Gibbous
Nov 10
Full
Nov 18
Last Quarter
Nov 25
New
Dec 2
First Quarter

Hourly Weather History & Observations

Time (EDT) Temp. Windchill Dew Point Humidity Pressure Visibility Wind Dir Wind Speed Gust Speed Precip Events Conditions
12:55 AM 44.6 °F 43.1 °F 44.6 °F 100% 29.94 in 10.0 mi SSW 3.5 mph - N/A   Clear
1:15 AM 44.6 °F - 44.6 °F 100% 29.93 in 10.0 mi Calm Calm - N/A   Clear
1:35 AM 42.8 °F 41.1 °F 42.8 °F 100% 29.94 in 10.0 mi South 3.5 mph - N/A   Clear
1:55 AM 46.4 °F 45.2 °F 46.4 °F 100% 29.93 in 10.0 mi South 3.5 mph - N/A   Clear
2:15 AM 46.4 °F 45.2 °F 46.4 °F 100% 29.92 in 10.0 mi SSE 3.5 mph - N/A   Clear
2:55 AM 46.4 °F - 46.4 °F 100% 29.90 in 10.0 mi Calm Calm - N/A   Scattered Clouds
3:15 AM 44.6 °F - 44.6 °F 100% 29.89 in 10.0 mi Calm Calm - N/A   Scattered Clouds
3:35 AM 46.4 °F - 46.4 °F 100% 29.90 in 10.0 mi Calm Calm - N/A   Clear
3:55 AM 46.4 °F 45.2 °F 46.4 °F 100% 29.90 in 10.0 mi SSE 3.5 mph - N/A   Clear
4:15 AM 46.4 °F - 46.4 °F 100% 29.88 in 10.0 mi Calm Calm - N/A   Scattered Clouds
4:35 AM 46.4 °F - 46.4 °F 100% 29.88 in 10.0 mi Calm Calm - N/A   Light Drizzle
4:55 AM 46.4 °F - 46.4 °F 100% 29.88 in 10.0 mi Calm Calm - N/A Rain Light Rain
5:15 AM 46.4 °F - 46.4 °F 100% 29.87 in 7.0 mi Calm Calm - N/A Rain Light Rain
5:35 AM 46.4 °F - 46.4 °F 100% 29.87 in 7.0 mi Calm Calm - N/A Rain Light Rain
5:55 AM 46.4 °F - 46.4 °F 100% 29.88 in 7.0 mi Calm Calm - N/A Rain Light Rain
6:15 AM 46.4 °F - 46.4 °F 100% 29.89 in 7.0 mi Calm Calm - N/A Rain Light Rain
6:35 AM 46.4 °F - 46.4 °F 100% 29.90 in 5.0 mi Calm Calm - N/A Rain Light Rain
7:15 AM 46.4 °F - 46.4 °F 100% 29.90 in 7.0 mi Calm Calm - N/A Rain Rain
7:35 AM 46.4 °F - 46.4 °F 100% 29.90 in 10.0 mi Calm Calm - N/A Rain Light Rain
7:55 AM 46.4 °F - 46.4 °F 100% 29.91 in 5.0 mi Calm Calm - N/A Rain Rain
8:15 AM 46.4 °F - 46.4 °F 100% 29.90 in 4.0 mi Calm Calm - N/A Rain Light Rain
8:35 AM 46.4 °F - 46.4 °F 100% 29.90 in 5.0 mi Calm Calm - N/A   Overcast
8:55 AM 48.2 °F - 48.2 °F 100% 29.91 in 7.0 mi Calm Calm - N/A   Overcast
9:15 AM 48.2 °F - 48.2 °F 100% 29.92 in 7.0 mi Calm Calm - N/A   Overcast
9:35 AM 50.0 °F - 50.0 °F 100% 29.92 in 7.0 mi Calm Calm - N/A   Overcast
9:55 AM 50.0 °F - 50.0 °F 100% 29.92 in 7.0 mi NNW 5.8 mph - N/A   Overcast
10:15 AM 50.0 °F - 50.0 °F 100% 29.92 in 10.0 mi North 6.9 mph - N/A   Overcast
10:35 AM 51.8 °F - 51.8 °F 100% 29.93 in 10.0 mi NNW 4.6 mph - N/A   Overcast
10:55 AM 51.8 °F - 51.8 °F 100% 29.92 in 10.0 mi North 4.6 mph - N/A   Overcast
11:15 AM 51.8 °F - 51.8 °F 100% 29.93 in 10.0 mi North 6.9 mph - N/A   Overcast
11:35 AM 53.6 °F - 53.6 °F 100% 29.92 in 10.0 mi North 8.1 mph - N/A   Overcast
11:55 AM 53.6 °F - 51.8 °F 94% 29.94 in 10.0 mi North 11.5 mph 19.6 mph N/A   Overcast
12:15 PM 53.6 °F - 50.0 °F 88% 29.94 in 10.0 mi NNE 8.1 mph 19.6 mph N/A   Mostly Cloudy
12:35 PM 53.6 °F - 48.2 °F 82% 29.93 in 10.0 mi North 15.0 mph 26.5 mph N/A   Mostly Cloudy
12:55 PM 53.6 °F - 48.2 °F 82% 29.93 in 10.0 mi North 10.4 mph 24.2 mph N/A   Mostly Cloudy
1:15 PM 57.2 °F - 48.2 °F 72% 29.92 in 10.0 mi North 12.7 mph 24.2 mph N/A   Scattered Clouds
1:35 PM 55.4 °F - 48.2 °F 77% 29.92 in 10.0 mi NNE 17.3 mph 25.3 mph N/A   Mostly Cloudy
1:55 PM 57.2 °F - 48.2 °F 72% 29.92 in 10.0 mi North 19.6 mph 25.3 mph N/A   Mostly Cloudy
2:15 PM 55.4 °F - 46.4 °F 72% 29.92 in 10.0 mi North 16.1 mph 19.6 mph N/A   Mostly Cloudy
2:35 PM 55.4 °F - 46.4 °F 72% 29.93 in 10.0 mi NNE 15.0 mph 24.2 mph N/A   Overcast
2:55 PM 55.4 °F - 46.4 °F 72% 29.93 in 10.0 mi North 13.8 mph 21.9 mph N/A   Overcast
3:35 PM 53.6 °F - 44.6 °F 72% 29.95 in 10.0 mi North 10.4 mph 24.2 mph N/A   Overcast
3:55 PM 55.4 °F - 44.6 °F 67% 29.96 in 10.0 mi North 13.8 mph 20.7 mph N/A   Overcast
4:15 PM 53.6 °F - 42.8 °F 67% 29.97 in 10.0 mi North 8.1 mph 18.4 mph N/A   Overcast
4:35 PM 53.6 °F - 42.8 °F 67% 29.97 in 10.0 mi North 9.2 mph 16.1 mph N/A   Overcast
4:55 PM 53.6 °F - 42.8 °F 67% 29.97 in 10.0 mi North 10.4 mph 20.7 mph N/A   Overcast
5:15 PM 53.6 °F - 41.0 °F 62% 29.98 in 10.0 mi North 10.4 mph 21.9 mph N/A   Mostly Cloudy
5:35 PM 53.6 °F - 41.0 °F 62% 29.99 in 10.0 mi North 6.9 mph 17.3 mph N/A   Scattered Clouds
5:55 PM 53.6 °F - 37.4 °F 54% 30.00 in 10.0 mi North 6.9 mph 16.1 mph N/A   Scattered Clouds
6:15 PM 51.8 °F - 35.6 °F 54% 30.03 in 10.0 mi North 8.1 mph 17.3 mph N/A   Clear
6:55 PM 51.8 °F - 35.6 °F 54% 30.06 in 10.0 mi North 5.8 mph - N/A   Clear
7:15 PM 51.8 °F - 33.8 °F 50% 30.07 in 10.0 mi North 6.9 mph - N/A   Clear
7:35 PM 50.0 °F - 33.8 °F 54% 30.08 in 10.0 mi North 6.9 mph - N/A   Clear
7:55 PM 50.0 °F - 32.0 °F 50% 30.09 in 10.0 mi North 8.1 mph - N/A   Clear
8:35 PM 50.0 °F - 32.0 °F 50% 30.11 in 10.0 mi North 10.4 mph 20.7 mph N/A   Clear
8:55 PM 50.0 °F - 32.0 °F 50% 30.11 in 10.0 mi North 10.4 mph - N/A   Clear
9:15 PM 50.0 °F - 32.0 °F 50% 30.13 in 10.0 mi North 8.1 mph - N/A   Clear
9:35 PM 50.0 °F - 32.0 °F 50% 30.14 in 10.0 mi North 9.2 mph - N/A   Clear
9:55 PM 48.2 °F - 32.0 °F 54% 30.15 in 10.0 mi North 6.9 mph - N/A   Clear
10:15 PM 46.4 °F 42.9 °F 32.0 °F 57% 30.16 in 10.0 mi North 6.9 mph - N/A   Clear
10:35 PM 46.4 °F 44.3 °F 32.0 °F 57% 30.17 in 10.0 mi North 4.6 mph - N/A   Clear
10:55 PM 46.4 °F 43.5 °F 32.0 °F 57% 30.18 in 10.0 mi North 5.8 mph - N/A   Clear
11:15 PM 46.4 °F 43.5 °F 32.0 °F 57% 30.18 in 10.0 mi North 5.8 mph - N/A   Clear
11:35 PM 46.4 °F 42.9 °F 32.0 °F 57% 30.18 in 10.0 mi North 6.9 mph - N/A   Clear
11:55 PM 46.4 °F 43.5 °F 32.0 °F 57% 30.18 in 10.0 mi North 5.8 mph - N/A   Clear